Погода в Бресте

Поиск расширенной информации на нашем сайте:

Полезная информация:

Новости сайта



02.01.2020
Опубликован Долгосрочный прогноз погоды по городам России и ближнего зарубежья на январь 2020 года.
Карты: Прогноз на январь и февраль 2020 года, Сравнение прогнозируемой аномалии приземной температуры воздуха на январь 2020 года по разным моделям.




Погода в Бресте - сегодня

Время (UTC), дата Ветер
(°,м/с) 
Видим.   Явления Облачность Т
(°С)
Тd
(°С)
f(%) Тe
(°С)
Pmin
(гПа)
dP
(гПа)
Po
(мм)
O2
(г/м3)
Тmin Tmax R s Состояние
почвы
12 09.08.20 340 (С) 3{11}  30000 м  гроза без осадков  10/10 1000 м кучево-дожд. 
[Cb cap]
+29.2 +14.8 42 +37  1018.1  -1  751  270           
15 09.08.20 240 (ЮЗ) 2{11}  30000 м  {гроза, ливн. осадки}  6/5 1000 м кучево-дожд., верхняя 
[Cb calv|Cc]
+24 +17.6 67 +37  1017.6  -0.7  751  274         
18 09.08.20 260 (З) 30000 м  {гроза, ливн. осадки}  5/5 1000 м кучево-дожд. 
[Cb calv]
+23.8 +18.3 71 +39  1017.1  -0.5  750  274    +30.2     
21 09.08.20 250 (З) 30000 м    ясно 
+20 +16 78 +30  1018  0.7  751  278           
00 10.08.20 080 (В) 30000 м    ясно 
+17.7 +16.5 93 +30  1018.3  0.1  751  280           
03 10.08.20 090 (В) 20000 м    ясно 
+15.6 +14.6 94 +25  1018.9  0.5  751  283           
06 10.08.20 060 (СВ) 30000 м    ясно 
+21.1 +16.3 74 +32  1018.9  0.4  752  278  +15.3         
09 10.08.20 080 (В) 30000 м    3/3 1000 м 
[Cu hum]
+26.2 +16.2 54 +37  1018.8  0.2  752  273           
12 10.08.20 050 (СВ) 30000 м    6/6 1000 м 
[Cu hum]
+28.5 +13.6 40 +35  1017.6  -1  751  271           
15 10.08.20 320 (СЗ) 30000 м  слаб. ливневой дождь, в посл. час гроза  6/4 1000 м кучево-дожд., средняя 
[Cb calv|Ac trans]
+26 +14.1 48 +33  1017  -0.8  750  273      0.0     
18 10.08.20 100 (В) 30000 м  {гроза, ливн. осадки}  3/0 средняя, верхняя 
[Ac und|Ci sp]
+23.8 +16.1 62 +34  1017.6  0.5  751  275    +30.3  0.0     
21 10.08.20 330 (СЗ) 30000 м    ясно 
+19.2 +16.1 82 +32  1018.4  0.4  751  279           
00 11.08.20 020 (С) 30000 м    ясно 
+17 +15.5 91 +28  1018.3  -0.2  751  281           
03 11.08.20 270 (З) 30000 м    6/0 средняя, верхняя 
[Ac As|Ci fib]
+16.8 +15.7 93 +28  1018.6  0.3  751  282           
06 11.08.20 050 (СВ) 30000 м    6/0 верхняя 
[Ci]
+20.1 +16.1 78 +31  1018.8  0.4  751  279  +16.3         
09 11.08.20 010 (С) 30000 м    4/3 1000 м верхняя 
[Cu hum|Ci fib]
+26.6 +16.8 55 +38  1018.6  0.2  752  272           
12 11.08.20 030 (СВ) 30000 м    5/4 1000 м верхняя 
[Cu med, cong|Ci fib]
+28.4 +12.3 37 +33  1017.9  -0.5  751  272           
15 11.08.20 030 (СВ) 30000 м    3/3 1000 м верхняя 
[Cu med, cong|Ci fib]
+27.7 +5.9 25 +28  1017.5  -0.5  751  274           
18 11.08.20 060 (СВ) 30000 м    3/0 средняя 
[Ac trans]
+23.4 +9.8 42 +24  1018.6  0.8  751  277    +28.8       
21 11.08.20 010 (С) 30000 м    ясно 
+18.3 +8.6 53 +20  1020  752  283           
00 12.08.20 030 (СВ) 30000 м    ясно 
+15 +9.1 68 +16  1020.8  0.6  753  286           
03 12.08.20 010 (С) 30000 м    ясно 
+12.7 +9.2 79 +14  1021.2  0.3  753  288           
06 12.08.20 050 (СВ) 30000 м    1/0 верхняя 
[Ci fib]
+17.3 +10.4 64 +21  1021.6  0.7  753  284  +11.9         
09 12.08.20 290 (З) 30000 м    8/8 1000 м 
[Cu hum]
+22 +9.8 46 +23  1021.5  0.2  753  279           
12 12.08.20 290 (З) 30000 м    8/5 1000 м средняя, верхняя 
[Cu hum|Ac trans|Ci fib]
+24 +8.4 37 +24  1021.1  -0.3  753  278           
Время (UTC), дата Ветер
(°,м/с) 
Видим.   Явления Облачность Т
(°С)
Тd
(°С)
f(%) Тe
(°С)
Pmin
(гПа)
dP
(гПа)
Po
(мм)
O2
(г/м3)
Тmin Tmax R s Состояние
почвы

Для получения пояснительной информации подведите курсор к названию столбца.

ПОГОДА в Бресте - архив

Всё, что Вы хотите узнать о погоде в Бресте - удобно и подробно!

Выберите нужную дату (начиная с 1 января 2019* года) и нажмите кнопку "Найти".
Будут отображены архивные сводки погоды по пункту Брест, начиная с указанной даты.


Отображать данные в формате CSV (для использования в таблицах Excel)


Внимание! Наш архив погоды предназначен исключительно для личного некоммерческого использования в познавательных целях. Если Вам необходимы официальные справки о состоянии погоды (для производственных, юридических, коммерческих и т.п. целей), обращайтесь в органы Росгидромета.

*Примечание: данная дата относится к архиву по метеостанциям СССР (Россия, СНГ, Балтия).
Архив по метеостанциям Зарубежной Европы и Азии (кроме Китая) хранится 10 дней, по другим регионам земного шара (Китай, Африка, Америка, Австралия, Океания) - 1 день.

Брест - район местоположения метеостанции


Название, широта, долгота, высота метеостанции:
Брест 52.1°ш. 23.7°д. 146 м над ур. моря [Беларусь]

Дополнительная информация

В oтличие oт бoльшинства пoгoдных сайтoв мы публикуем пoдрoбную метеoинфoрмацию в детальнoм прoфессиoнальнoм фoрмате.

Характеристики температуры и влажнoсти вoздуха измеряются на высoте 2 м в тени вдали oт зданий и деревьев.
Скoрoсть ветра измеряется на высoте 10 м (на урoвне рoста челoвека скoрoсть ветра ниже в 1.5-2 раза). Если метеoстанция нахoдится в гoрoде или в лесу, тo скoрoсть ветра занижена на 2-4 м/с пo сравнению с oткрытым местoм. Скoрoсть ветра над акватoриями крупных рек и oзёр, а также на вершинах хoлмoв на 2-5 м/с выше, чем в oбычных услoвиях.
Атмoсфернoе давление в разных тoчках местнoсти мoжет значительнo oтличаться oт давления на метеoстанции, в зависимoсти oт услoвий рельефа (при пoдъёме на 10 м давление пoнижается примернo на 1 мм рт.ст.).